Wetbulb
74.24 74.75 74.44 74.37 74.75 75.84 75.46 76.28 77.15 77.56 78.68 78.97 78.93 78.01 78.10 77.67 77.91 78.00 77.34 75.72 76.26 76.78 76.81 76.45 75.61 77.01 75.84 75.82 76.32 73.73 70.84 71.28 69.32 71.16 73.60 71.11 71.59 72.60 76.85 77.41 77.90 77.90 76.20
73.97 74.42 73.43 73.89 74.53 74.38 74.77 74.66 75.40 76.33 77.38 78.43 78.26 77.93 77.42 77.66 77.86 76.86 76.09 76.73 75.70 75.17 76.06 76.30 75.06 73.77 74.82 76.13 75.44 74.15 71.27 74.90 70.03 68.65 73.13 73.70 76.22 73.00 75.99 78.55 76.68 75.98 76.59
72.19 72.60 73.59 74.35 74.56 74.71 74.67 74.97 75.30 76.42 76.90 75.80 76.66 76.07 76.42 75.80 75.71 76.53 76.40 75.90 75.73 75.55 75.82 75.37 75.03 75.10 74.36 75.62 74.83 74.65 73.80 75.63 74.91 70.86 69.13 72.26 73.07 74.94 74.93 75.61 77.90 77.30 76.54
69.96 70.29 70.56 71.04 71.57 71.84 73.39 75.67 75.69 77.16 75.93 77.14 77.31 76.88 76.21 75.57 75.16 74.65 74.72 75.04 74.39 74.10 74.59 75.20 75.15 75.51 75.26 76.00 74.90 75.72 74.76 73.58 73.19 71.28 70.10 70.22 71.18 73.26 76.44 74.31 70.94 75.92 75.19
68.76 68.76 69.25 70.29 70.70 71.08 71.43 72.75 72.85 74.37 75.24 75.88 75.83 75.95 75.93 74.17 72.33 75.22 74.92 74.81 74.81 74.05 74.12 74.57 74.95 75.04 72.21 73.00 74.71 75.03 72.25 71.85 73.63 71.75 70.31 71.12 70.81 69.60 70.84 74.28 75.00 73.66 72.69
67.93 67.88 68.78 69.01 69.20 69.11 69.49 69.96 70.83 71.23 72.57 74.10 73.81 74.25 74.78 72.12 70.47 69.65 71.34 71.90 73.71 73.88 72.90 74.19 74.56 72.68 72.97 67.53 67.94 68.10 70.12 67.92 68.01 73.00 71.98 70.86 71.76 71.37 71.02 71.65 72.97 73.24 70.45
67.00 66.43 65.89 65.39 65.15 65.55 65.81 66.48 67.43 67.82 68.97 70.70 71.35 72.23 72.77 73.61 67.75 67.68 69.59 71.28 71.54 72.13 73.75 72.86 72.56 72.43 72.30 73.84 68.46 66.75 66.77 66.73 67.40 72.07 72.52 72.92 72.35 74.07 73.60 71.06 71.98 72.01 71.74
64.55 63.22 63.47 62.96 62.85 63.27 63.77 63.86 64.39 64.56 65.50 66.33 68.05 69.84 70.75 71.41 65.74 64.67 67.05 72.44 71.32 72.47 72.69 73.22 73.66 72.97 73.60 72.91 73.12 71.03 71.02 71.56 70.40 70.55 72.28 73.78 74.34 75.92 75.29 74.42 73.24 72.97 71.72
61.14 61.14 61.39 61.57 61.78 62.20 61.85 61.84 61.98 61.50 62.09 63.29 64.94 67.85 68.53 69.80 64.56 63.17 64.95 71.35 69.65 71.25 72.22 73.54 73.66 73.19 68.24 65.83 71.97 70.57 71.75 72.07 68.42 66.89 67.10 66.25 67.31 66.56 68.99 72.12 69.96 69.65 67.38
60.52 60.52 61.33 61.20 60.34 59.71 60.86 60.10 60.64 59.66 58.97 60.13 60.61 62.82 63.78 67.07 63.89 61.75 63.97 70.87 68.37 68.25 68.12 72.93 66.01 69.86 64.57 63.74 70.38 69.06 68.08 68.64 71.29 71.97 71.45 68.87 67.50 70.70 66.06 71.41 69.64 67.86 69.00
60.05 59.29 60.18 60.73 60.60 61.23 61.22 60.98 59.84 58.82 58.80 57.69 57.91 60.82 63.14 65.69 66.99 60.67 59.77 68.76 68.46 65.56 65.80 68.14 68.26 62.10 60.56 59.25 62.66 70.52 68.20 69.73 68.44 69.78 69.96 70.66 72.95 73.68 73.12 72.88 73.55 70.32 68.80
58.86 59.27 59.40 59.38 58.41 58.35 59.95 59.02 58.19 57.50 57.17 57.35 56.79 57.85 62.74 65.87 61.65 61.16 58.55 58.27 63.92 66.26 64.09 66.01 67.60 58.61 57.67 57.36 60.32 62.20 60.92 62.34 66.67 65.67 66.02 67.40 68.96 70.51 71.52 73.75 75.15 73.92 72.69
57.46 57.13 57.33 58.48 59.22 58.94 58.31 57.16 55.39 55.59 55.04 54.58 54.84 55.31 58.11 61.88 62.90 59.91 59.15 58.69 58.64 62.68 66.45 62.78 58.06 56.80 56.40 57.94 57.58 59.65 59.72 66.20 66.06 65.29 65.48 66.94 68.69 70.06 72.55 75.48 76.30 76.56 75.21
57.06 57.05 57.47 57.02 56.24 57.31 56.91 56.44 55.83 54.57 54.36 54.34 54.20 54.73 55.92 59.40 59.09 63.11 64.54 64.15 61.89 63.69 64.56 67.02 62.53 59.84 59.10 60.67 62.79 62.80 66.71 67.84 67.34 66.80 66.81 68.06 69.18 69.46 69.39 71.24 71.74 71.74 70.72
57.38 58.55 57.85 56.20 55.84 56.03 56.13 55.97 55.05 55.42 53.31 52.59 53.74 54.28 55.12 56.18 55.74 49.15 49.84 56.48 60.59 60.53 57.37 62.79 63.44 63.67 64.21 66.83 66.24 66.84 67.83 68.62 67.50 67.56 67.24 67.48 67.65 68.88 68.90 69.90 71.23 70.97 68.97
56.99 57.08 55.70 56.11 56.67 55.42 54.61 54.44 52.70 50.63 48.93 46.81 45.94 47.73 51.47 48.61 46.44 44.38 43.79 44.04 45.54 47.49 58.72 60.96 61.70 62.53 62.83 64.89 66.99 67.36 66.57 64.13 66.12 66.05 66.19 66.89 66.90 67.76 68.62 69.32 69.38 70.06 68.60
57.74 56.71 55.55 54.57 54.93 54.73 54.46 53.41 52.12 53.85 50.32 47.93 45.83 46.28 45.83 44.31 43.83 43.16 43.78 43.91 44.73 47.28 56.29 59.71 60.59 62.12 63.13 65.36 66.95 64.99 65.33 64.18 65.72 65.92 66.91 67.33 65.93 66.16 66.78 67.64 68.13 68.78 69.42
57.66 52.24 55.46 54.59 54.22 54.20 53.99 53.65 53.52 51.65 51.04 52.95 50.38 47.60 45.89 44.11 43.63 44.36 45.08 50.39 56.53 53.51 59.99 62.40 61.12 64.17 62.77 64.90 64.13 62.94 64.86 64.31 63.83 68.28 64.30 63.95 67.48 67.40 66.72 68.08 68.07 66.95 67.31
56.26 56.04 55.50 55.93 55.98 54.29 54.27 53.97 53.81 53.89 51.91 52.01 52.77 50.23 49.66 45.73 45.03 45.39 46.03 50.26 49.95 50.82 52.56 54.69 57.38 62.14 62.75 61.55 61.27 61.26 61.85 64.40 65.87 64.24 65.51 65.86 65.96 64.66 65.71 67.02 67.46 60.01 62.90
55.35 54.53 54.45 55.21 55.14 54.91 54.66 54.52 53.79 54.33 53.40 51.17 48.13 48.32 49.74 49.41 49.40 49.73 49.27 48.24 48.58 49.02 49.47 50.21 51.75 53.98 57.04 59.85 62.36 62.54 60.95 61.46 63.03 64.74 63.51 65.46 64.58 63.60 64.53 64.06 66.98 66.01 67.90
53.75 53.89 55.31 54.52 54.29 54.04 53.78 53.62 53.63 52.91 52.70 52.81 52.35 50.24 44.17 47.65 47.69 47.27 47.22 47.20 46.64 47.44 48.79 49.73 50.67 51.27 52.58 53.49 53.92 55.34 57.96 59.47 61.07 59.26 62.42 61.00 65.53 62.21 63.50 65.63 63.45 67.92 67.43
54.12 53.54 53.21 53.05 53.26 52.71 53.12 53.58 53.63 53.04 52.69 52.22 52.31 52.67 45.09 53.50 49.07 46.74 47.15 46.90 46.54 46.90 48.27 48.92 50.23 51.06 51.18 51.42 52.30 53.46 54.02 54.02 53.32 52.84 54.53 58.94 61.31 62.37 64.61 64.94 64.38 64.15 64.02
55.76 55.24 54.74 54.14 53.69 52.06 52.77 52.54 52.31 52.20 52.20 52.24 52.31 52.34 52.35 52.59 53.40 53.03 49.72 47.24 47.01 47.22 47.53 47.60 48.36 49.33 50.00 51.18 52.48 52.33 49.97 45.93 45.53 48.48 51.45 53.89 57.65 60.99 62.05 64.08 64.55 65.28 63.60
56.73 56.08 55.58 55.22 54.70 54.20 53.84 53.24 52.79 48.99 51.04 51.41 51.36 51.51 51.91 52.63 52.24 52.29 53.14 53.73 50.92 49.27 48.69 47.97 47.83 48.35 48.99 49.12 51.21 48.92 46.47 42.56 42.36 46.06 47.89 49.02 50.84 52.69 57.25 61.15 63.44 61.96 65.39
57.06 56.82 56.46 55.92 55.55 54.87 54.63 54.53 53.85 53.51 52.69 52.08 51.36 51.45 51.49 51.99 51.65 51.89 52.52 52.46 52.43 53.09 52.97 52.21 50.69 48.98 48.90 49.22 48.82 46.55 40.04 34.38 37.16 36.81 43.35 47.79 53.85 56.51 57.24 57.33 58.49 60.31 63.05
57.74 57.03 56.45 56.44 55.77 55.92 55.16 54.79 54.51 54.31 53.41 53.30 53.07 52.84 52.45 51.96 51.93 51.87 51.82 51.79 51.99 52.07 52.04 52.24 54.21 53.89 52.95 50.55 46.37 38.26 32.46 32.47 33.62 32.27 36.70 49.23 54.56 56.04 56.01 55.16 55.60 56.67 59.63
MSLP
1009.94 1010.17 1010.10 1009.90 1009.72 1009.79 1009.63 1009.62 1009.61 1009.46 1009.36 1009.22 1009.37 1009.41 1009.47 1009.49 1009.44 1009.59 1009.61 1009.67 1009.71 1009.77 1009.80 1009.91 1009.92 1010.11 1010.24 1010.50 1010.27 1010.24 1010.73 1011.01 1010.92 1010.05 1009.63 1010.38 1010.50 1011.01 1009.57 1009.46 1009.04 1009.03 1009.33
1010.26 1010.03 1009.54 1009.49 1009.48 1009.41 1009.44 1009.36 1009.21 1009.11 1008.89 1008.77 1008.80 1008.86 1008.94 1009.07 1009.13 1009.10 1009.18 1008.93 1008.93 1009.21 1009.07 1009.30 1009.05 1009.30 1009.47 1009.51 1009.72 1009.99 1010.03 1010.11 1010.73 1010.40 1010.08 1009.88 1010.13 1010.09 1009.01 1008.99 1008.61 1007.94 1007.99
1010.94 1010.44 1010.22 1010.12 1009.72 1009.42 1009.27 1009.08 1009.09 1009.13 1008.87 1008.61 1008.34 1008.41 1008.36 1008.32 1008.27 1008.49 1008.84 1008.59 1008.42 1008.56 1008.45 1008.52 1008.63 1008.67 1008.92 1008.67 1008.70 1009.02 1009.23 1009.57 1009.99 1010.36 1010.02 1010.22 1009.95 1009.63 1008.73 1006.77 1008.28 1008.04 1007.94
1011.75 1011.49 1011.18 1011.04 1010.88 1010.50 1010.16 1009.69 1009.29 1009.08 1009.03 1008.80 1008.44 1008.25 1008.17 1007.97 1007.84 1007.71 1007.69 1007.99 1008.11 1007.92 1007.82 1007.86 1007.85 1007.94 1008.07 1008.00 1008.04 1008.17 1008.76 1009.42 1009.93 1010.26 1010.15 1009.55 1009.50 1008.89 1008.30 1008.23 1008.37 1008.72 1007.68
1012.35 1011.99 1011.68 1011.69 1011.43 1011.13 1010.75 1010.31 1009.87 1009.51 1009.37 1009.07 1008.68 1008.31 1007.98 1007.72 1007.34 1006.85 1007.16 1007.12 1007.26 1007.40 1007.72 1007.61 1007.34 1007.55 1007.60 1007.58 1007.55 1007.88 1008.54 1009.15 1009.34 1009.62 1009.68 1008.96 1008.89 1008.98 1008.53 1008.25 1008.40 1008.26 1007.40
1012.73 1012.33 1012.16 1011.99 1011.81 1011.52 1011.36 1011.08 1010.66 1010.12 1009.56 1009.02 1008.67 1008.25 1007.90 1007.30 1006.84 1006.88 1006.93 1006.75 1006.82 1006.74 1007.01 1007.28 1007.32 1007.27 1007.23 1007.30 1007.43 1007.65 1008.29 1008.90 1007.22 1007.83 1008.64 1008.16 1007.99 1008.37 1008.53 1008.46 1008.55 1008.42 1007.75
1012.98 1012.99 1012.92 1012.91 1012.64 1012.45 1012.18 1011.73 1011.17 1010.65 1010.07 1009.29 1008.69 1008.20 1007.77 1007.47 1006.96 1006.89 1006.84 1006.75 1006.48 1006.20 1006.11 1006.43 1006.53 1006.34 1006.58 1006.68 1007.15 1007.46 1007.91 1008.07 1008.14 1008.16 1007.72 1007.32 1007.14 1007.21 1007.72 1008.07 1008.33 1008.23 1007.80
1013.40 1013.50 1013.40 1013.35 1013.19 1012.85 1012.27 1011.78 1011.37 1010.88 1010.21 1009.52 1008.84 1008.22 1007.67 1007.32 1006.99 1006.72 1006.57 1006.43 1006.27 1005.83 1005.70 1005.61 1005.71 1005.91 1005.87 1006.19 1006.53 1007.05 1007.06 1007.10 1007.40 1007.36 1007.27 1006.77 1006.61 1006.62 1007.02 1007.26 1007.68 1007.81 1007.53
1013.91 1013.91 1013.83 1013.50 1013.07 1012.69 1012.35 1012.04 1011.64 1011.14 1010.42 1009.68 1008.99 1008.20 1007.51 1006.99 1006.77 1006.62 1006.74 1006.11 1005.72 1005.41 1005.27 1005.24 1005.21 1005.25 1005.56 1006.02 1006.11 1006.16 1006.17 1006.07 1005.97 1006.04 1006.05 1006.02 1006.19 1006.41 1006.67 1006.75 1006.89 1007.26 1007.02
1014.37 1014.28 1014.05 1013.79 1013.48 1012.96 1012.47 1012.07 1011.68 1011.39 1010.78 1010.05 1009.37 1008.55 1007.61 1006.86 1006.55 1006.31 1006.19 1006.17 1005.63 1004.80 1004.38 1004.04 1004.37 1004.65 1004.90 1005.35 1005.63 1005.82 1005.92 1005.59 1005.43 1005.13 1005.50 1005.48 1005.59 1005.78 1006.03 1006.39 1006.27 1006.22 1006.59
1014.83 1014.62 1014.09 1013.77 1013.44 1012.75 1012.33 1012.02 1011.70 1011.17 1010.54 1009.93 1009.27 1008.24 1007.30 1006.46 1005.92 1005.82 1005.75 1005.74 1005.47 1004.69 1003.98 1003.54 1003.05 1003.76 1003.92 1004.54 1004.80 1004.97 1005.08 1005.15 1005.21 1005.08 1004.77 1004.53 1004.35 1004.39 1004.67 1005.02 1005.15 1005.33 1005.56
1014.99 1014.58 1014.23 1013.89 1013.54 1012.91 1012.36 1012.05 1011.79 1011.33 1010.62 1009.74 1009.05 1007.83 1006.15 1005.69 1005.54 1005.30 1005.47 1005.47 1005.06 1004.99 1004.57 1003.80 1003.11 1004.29 1004.15 1004.42 1004.91 1004.55 1004.59 1004.74 1004.84 1004.68 1004.27 1003.74 1003.35 1002.99 1002.85 1002.91 1003.54 1004.06 1004.36
1015.04 1014.58 1014.10 1013.64 1013.07 1012.79 1012.32 1011.92 1011.65 1011.26 1010.72 1010.07 1009.25 1008.45 1007.24 1006.26 1006.15 1005.52 1005.27 1005.02 1005.11 1005.22 1004.67 1004.45 1004.33 1004.22 1004.32 1004.50 1004.68 1004.14 1004.13 1004.09 1003.96 1003.81 1003.34 1002.83 1002.50 1002.32 1002.09 1001.93 1002.55 1003.33 1003.81
1014.78 1014.37 1013.84 1013.44 1013.17 1012.76 1012.30 1011.85 1011.64 1011.36 1010.91 1010.40 1009.66 1008.75 1007.76 1006.96 1006.79 1005.92 1005.80 1005.71 1005.28 1005.11 1004.63 1004.57 1004.45 1004.27 1003.47 1003.25 1003.11 1003.30 1003.10 1002.71 1002.58 1002.53 1002.41 1002.06 1001.72 1001.46 1001.27 1001.04 1001.16 1001.74 1002.47
1014.75 1013.99 1013.72 1013.56 1013.12 1012.68 1012.46 1012.16 1011.78 1011.58 1011.52 1011.08 1010.36 1009.66 1008.72 1007.99 1007.88 1007.97 1007.51 1006.53 1005.71 1004.95 1005.38 1004.25 1003.53 1003.32 1002.92 1002.05 1001.57 1001.41 1001.32 1001.29 1001.38 1001.51 1001.49 1001.22 1000.82 1000.51 1000.34 1000.34 1000.25 1001.05 1001.57
1014.55 1014.14 1014.10 1013.73 1013.07 1012.84 1012.51 1012.23 1011.97 1011.59 1011.17 1010.84 1010.74 1010.55 1009.90 1009.49 1008.76 1007.90 1007.13 1006.47 1005.94 1005.60 1004.94 1003.92 1002.93 1002.00 1001.77 1001.69 1001.61 1001.27 1001.06 1000.86 1000.50 1000.29 1000.13 1000.07 999.91 999.79 999.51 999.42 999.58 999.40 1000.24
1014.17 1014.27 1014.04 1013.82 1013.45 1013.08 1012.64 1012.26 1011.72 1011.25 1011.04 1010.71 1010.54 1010.26 1009.96 1009.52 1008.40 1007.49 1006.64 1005.84 1005.16 1005.28 1004.73 1003.60 1002.79 1002.04 1001.52 1001.62 1001.46 1001.39 1000.89 1000.48 1000.05 1000.01 999.88 999.81 999.70 999.53 999.34 998.92 999.05 998.81 999.25
1013.90 1013.97 1013.64 1013.57 1013.60 1013.30 1012.91 1012.45 1011.87 1011.46 1010.89 1010.30 1010.20 1010.05 1009.53 1008.94 1008.20 1007.52 1006.55 1005.03 1005.04 1004.99 1003.79 1002.70 1002.43 1001.85 1001.63 1001.42 1001.38 1001.20 1000.76 1000.32 999.95 999.65 999.39 999.53 998.94 999.04 999.19 999.51 999.70 999.63 999.45
1013.23 1013.21 1013.27 1012.73 1012.40 1012.52 1012.42 1012.25 1011.89 1010.95 1011.06 1010.65 1010.20 1009.88 1009.61 1008.94 1008.19 1007.73 1007.16 1006.67 1006.30 1005.70 1004.94 1004.18 1003.38 1002.11 1001.70 1001.68 1001.39 1000.84 1000.14 1000.34 999.77 999.61 999.06 998.70 998.69 998.86 999.01 998.85 998.82 999.17 999.31
1013.00 1013.45 1013.05 1012.40 1011.92 1011.59 1011.31 1010.94 1010.78 1009.97 1009.99 1010.52 1010.85 1010.74 1010.23 1009.44 1008.61 1008.09 1007.85 1007.50 1006.93 1006.53 1006.00 1004.99 1004.37 1003.57 1002.81 1002.24 1001.47 1000.90 1000.74 999.98 1000.01 999.58 999.12 998.76 998.18 997.92 997.95 997.54 997.44 997.84 998.12
1013.13 1012.81 1012.70 1012.16 1011.94 1011.70 1011.29 1010.71 1010.16 1009.81 1009.35 1009.19 1009.73 1010.38 1010.67 1010.40 1009.72 1009.20 1008.66 1008.19 1007.72 1007.10 1006.32 1005.48 1004.83 1004.28 1003.69 1003.09 1002.63 1001.98 1001.40 1000.80 1000.50 1000.27 999.52 998.91 998.02 997.31 997.09 996.83 996.91 996.54 996.49
1013.15 1012.77 1012.44 1012.14 1011.93 1011.76 1011.31 1010.71 1010.08 1009.76 1009.41 1008.86 1008.53 1008.21 1009.28 1009.26 1009.41 1009.31 1008.93 1008.66 1008.22 1007.62 1006.95 1006.27 1005.46 1004.94 1004.39 1003.74 1003.14 1002.63 1002.33 1002.01 1001.71 1001.15 1000.53 999.89 998.93 997.96 997.25 996.02 996.10 996.25 996.09
1013.01 1012.65 1012.30 1012.00 1011.86 1011.63 1010.99 1010.74 1010.15 1009.93 1009.48 1008.97 1008.62 1008.27 1008.16 1007.69 1007.55 1008.22 1008.59 1008.71 1008.32 1007.68 1007.12 1006.73 1005.98 1005.22 1004.68 1004.30 1003.81 1003.64 1003.51 1003.30 1002.88 1002.22 1000.95 999.96 998.97 998.09 997.32 997.03 996.47 996.13 995.95
1012.41 1012.27 1012.08 1011.77 1011.68 1011.37 1010.98 1010.60 1010.22 1009.95 1009.63 1009.16 1008.77 1008.44 1008.05 1007.57 1007.11 1006.86 1006.84 1007.54 1007.74 1007.42 1006.79 1006.38 1005.98 1005.48 1005.11 1004.63 1004.19 1003.92 1003.88 1003.53 1003.08 1002.34 1001.56 1000.59 999.33 998.53 997.68 996.74 996.02 995.88 995.66
1011.92 1011.78 1011.69 1011.40 1011.19 1011.04 1010.84 1010.49 1010.19 1009.84 1009.57 1009.23 1008.92 1008.61 1008.31 1007.64 1007.19 1007.03 1006.65 1006.52 1006.26 1006.40 1006.04 1005.66 1005.30 1004.95 1004.56 1004.34 1004.14 1003.91 1003.75 1003.04 1002.90 1002.42 1001.36 1000.75 999.53 998.46 997.60 996.96 996.33 995.72 995.25
1011.77 1011.58 1011.42 1011.20 1010.92 1010.63 1010.54 1010.36 1010.10 1009.80 1009.63 1009.21 1008.95 1008.67 1008.41 1007.88 1007.53 1007.17 1006.77 1006.49 1006.12 1005.53 1005.31 1005.22 1004.65 1004.20 1003.83 1004.02 1003.98 1003.81 1003.59 1003.29 1003.00 1003.00 1002.28 1000.76 999.08 998.25 997.78 997.40 996.71 995.81 994.62
Wind_Speed
2 3 2 3 3 3 5 5 7 8 8 8 8 9 9 10 10 9 11 11 12 11 10 11 13 12 8 8 7 8 9 4 9 11 11 3 1 13 10 3 7 9 9
5 5 5 3 2 4 5 7 6 7 5 6 6 7 8 8 8 9 11 12 12 13 13 11 12 9 10 10 9 10 7 8 6 11 9 10 7 6 19 10 9 10 11
10 12 11 11 11 10 9 8 8 8 8 9 6 7 7 8 8 9 9 11 11 12 12 13 13 11 12 10 11 10 10 7 8 6 6 5 11 11 4 9 8 10 11
10 10 9 10 11 11 13 14 13 10 10 11 9 8 9 9 9 9 9 9 10 11 12 13 14 13 13 13 12 11 9 7 5 7 7 7 4 10 9 5 3 11 10
10 10 10 10 10 11 12 12 13 12 13 12 12 12 11 11 11 12 11 10 9 10 11 13 13 14 14 14 11 11 8 5 6 7 8 8 6 4 7 8 7 9 9
9 9 10 11 11 12 11 12 14 14 14 13 13 14 14 12 8 3 6 8 10 9 10 12 12 15 14 11 10 9 6 5 10 9 9 9 8 6 4 5 8 8 10
11 12 13 13 13 12 13 13 12 11 12 15 15 14 15 14 13 9 9 10 11 10 10 10 10 10 12 10 11 9 10 12 13 10 10 9 9 9 7 6 7 8 10
8 10 11 11 12 13 14 14 13 13 14 12 13 15 15 12 15 12 12 12 12 12 10 10 10 11 8 7 8 10 11 11 14 12 13 10 9 7 9 7 6 8 6
12 12 12 13 13 14 14 15 14 14 15 14 15 15 15 14 13 11 9 13 14 14 11 11 10 9 9 7 9 9 7 9 12 17 15 9 8 5 4 5 7 7 6
13 14 13 13 13 13 11 12 11 12 14 13 16 17 18 12 14 14 10 8 15 13 12 13 15 13 11 14 10 9 9 10 9 10 11 10 10 11 11 10 9 9 8
14 13 12 11 12 14 14 13 13 14 14 13 16 15 17 15 12 11 7 9 10 12 11 12 9 19 18 16 15 11 11 6 8 8 10 9 8 12 11 12 12 10 10
12 11 13 12 10 10 12 12 12 12 13 14 12 13 12 9 9 7 9 12 14 10 9 11 12 4 14 13 11 11 12 8 8 10 11 10 10 10 11 10 13 11 10
13 12 12 11 10 11 12 13 10 10 9 11 10 10 12 9 11 11 5 8 8 9 8 7 14 12 9 10 16 13 14 9 9 11 11 11 10 11 11 6 9 9 10
11 11 12 13 14 11 11 10 8 9 9 9 10 10 9 10 9 11 10 9 6 6 7 6 10 15 15 17 10 14 13 12 12 11 12 11 11 11 11 11 11 10 10
13 12 13 11 12 11 10 9 11 9 8 10 9 10 11 12 12 17 13 11 11 11 11 11 11 10 10 11 11 14 13 12 13 12 12 12 11 11 11 11 9 10 11
11 10 10 10 10 10 10 10 11 7 12 10 7 4 7 8 16 18 17 15 13 8 8 11 12 13 12 11 10 10 10 8 10 12 11 11 11 11 11 10 11 9 11
9 11 9 9 10 11 11 11 11 11 10 8 8 11 6 11 16 15 14 13 14 4 6 10 12 12 12 10 9 9 10 9 10 9 6 7 4 5 9 9 9 9 7
8 2 8 7 7 8 9 10 10 10 12 13 11 13 14 16 15 15 18 15 10 3 10 7 8 9 8 8 7 9 10 10 9 10 7 6 10 9 9 8 8 11 11
8 7 10 7 5 4 5 7 9 9 10 11 12 12 17 18 14 10 13 9 9 9 10 12 11 10 6 6 7 6 7 8 9 7 8 8 8 7 11 13 10 12 11
9 4 7 9 9 9 9 6 7 9 7 9 9 11 13 14 14 14 11 9 9 9 9 9 9 9 10 10 10 6 6 6 8 8 6 10 10 6 11 10 11 12 10
8 8 7 8 9 9 9 10 10 10 10 7 5 5 8 7 8 8 9 9 9 10 9 9 8 8 8 8 9 9 9 8 7 7 9 7 11 6 9 11 7 9 12
8 8 8 9 8 9 9 10 10 10 11 11 11 6 10 4 5 6 7 8 8 9 9 9 8 7 7 8 9 8 8 8 9 9 9 10 8 8 11 12 7 8 11
7 9 9 8 9 10 9 10 10 11 11 11 11 11 11 10 5 5 5 5 6 7 7 8 8 8 7 7 7 8 8 8 9 8 9 9 9 10 6 11 13 10 11
7 7 9 8 8 9 10 10 10 10 10 11 11 11 11 11 11 11 6 5 5 6 6 5 4 8 7 7 6 7 7 9 9 10 12 9 9 11 12 13 12 8 13
8 8 9 9 8 8 10 11 10 10 10 10 10 10 11 12 11 12 10 11 8 4 9 6 5 6 5 7 9 15 15 12 11 12 8 11 13 14 11 10 14 15 18
10 9 8 6 8 8 8 9 10 10 10 10 10 10 10 10 11 11 11 12 12 11 11 9 10 13 6 2 8 12 10 11 11 12 10 10 11 11 10 13 18 15 17
Wind_Direction
67 9 35 19 351 266 265 248 251 262 270 279 264 263 256 254 252 245 245 244 243 241 234 234 233 229 224 233 259 241 233 222 249 271 286 164 30 271 276 238 227 229 201
359 301 310 303 306 301 301 296 295 315 288 254 274 258 254 257 261 253 248 249 246 247 248 248 242 245 233 224 230 230 235 221 212 247 273 285 219 203 235 226 241 253 232
343 352 351 336 332 329 303 286 288 311 300 294 283 263 259 255 247 228 250 264 266 257 251 239 246 228 233 241 229 225 224 221 211 214 250 260 280 284 231 262 264 236 265
348 342 337 346 340 330 326 318 312 307 303 299 291 286 283 275 264 259 252 244 270 275 267 255 255 243 244 235 233 222 233 221 217 229 239 242 245 281 303 293 274 268 247
336 328 346 336 332 328 321 320 313 307 295 294 293 290 274 266 256 241 232 245 254 258 273 277 258 252 241 247 240 237 242 233 237 224 237 230 237 263 269 293 277 248 235
336 339 344 344 339 332 333 327 318 309 302 292 287 284 277 274 278 218 263 273 274 277 273 265 268 274 264 258 233 228 212 224 197 253 233 251 236 225 235 257 275 267 270
351 357 359 351 340 333 328 326 315 311 304 299 295 282 274 270 279 229 220 265 264 259 251 259 268 260 242 249 234 232 225 218 224 256 261 231 237 231 227 236 241 247 257
346 356 343 340 331 326 326 321 316 311 310 304 296 288 286 281 276 269 234 255 266 259 259 267 248 253 253 233 252 221 227 220 226 226 237 253 257 244 233 237 253 266 276
354 344 340 331 329 331 328 323 319 319 312 305 299 297 280 279 280 292 279 269 257 250 247 252 258 264 270 210 240 260 263 239 223 214 235 232 231 189 249 245 241 252 264
349 342 337 337 327 320 315 316 315 312 305 313 305 295 292 280 273 270 262 284 264 260 250 226 216 230 215 178 216 240 256 257 258 273 226 246 233 237 206 230 246 248 242
343 332 329 333 331 328 328 326 327 321 315 308 303 295 281 282 277 273 262 275 280 269 266 257 242 211 218 185 198 211 219 249 286 286 271 265 233 221 220 209 210 226 239
335 329 334 329 328 317 323 330 327 317 311 316 311 310 306 303 307 318 311 254 268 269 270 289 290 141 219 203 221 228 220 211 238 255 257 253 253 235 238 224 192 204 221
339 335 331 332 328 334 331 329 321 321 317 314 312 318 316 316 323 310 7 358 287 280 273 277 315 302 225 243 240 234 218 219 236 252 256 253 242 253 263 244 165 200 226
346 346 349 343 346 340 334 335 336 327 323 316 316 316 302 299 314 328 340 338 286 276 296 307 305 295 274 278 269 221 231 241 245 245 247 250 248 241 247 243 214 203 227
338 350 359 352 347 349 350 347 338 336 330 323 327 318 323 335 341 332 327 309 306 318 325 285 270 272 284 278 252 236 242 237 229 231 242 253 248 245 231 246 216 214 225
336 355 349 344 349 356 351 348 333 328 320 332 316 328 340 315 314 309 299 294 281 286 282 276 276 269 262 264 272 273 268 275 258 241 240 234 233 239 246 234 247 226 219
352 358 343 346 344 350 349 352 349 355 350 354 8 340 255 301 320 328 329 307 271 228 248 262 261 263 262 263 271 270 269 252 266 231 251 267 269 278 268 255 265 266 234
350 193 343 343 344 341 344 337 349 351 350 355 10 347 350 340 336 350 346 340 360 286 270 284 285 277 274 271 284 281 268 272 281 266 232 255 263 244 250 249 252 262 259
340 356 342 332 332 330 340 348 326 356 359 356 355 2 3 347 350 3 355 11 354 349 345 346 341 325 293 284 275 272 305 301 296 291 255 228 235 234 252 235 233 238 240
343 131 313 330 343 348 341 330 324 338 6 10 2 357 355 352 4 4 4 358 357 346 338 341 336 339 347 345 324 283 268 283 302 295 292 279 251 238 262 253 234 239 238
335 349 326 337 346 347 345 334 343 346 346 359 1 340 323 350 346 350 355 358 356 344 342 334 338 346 348 346 343 342 339 342 344 357 342 345 305 262 264 267 295 251 234
345 349 352 350 345 348 334 333 338 348 343 343 345 351 197 28 7 350 350 351 354 341 343 334 340 345 352 353 347 350 343 352 353 346 327 312 316 320 310 282 260 266 265
354 353 355 358 359 329 353 340 346 348 341 342 345 350 350 355 36 22 352 339 334 335 333 334 335 345 350 344 347 20 358 347 331 322 321 315 305 299 301 298 289 290 274
318 355 345 355 1 341 359 336 351 345 344 346 348 347 349 348 354 358 19 359 327 301 292 290 308 334 341 351 351 4 351 344 326 316 327 313 318 321 313 298 293 282 276
319 346 333 336 339 351 346 348 346 344 351 344 351 350 346 344 352 350 357 353 356 343 327 291 279 289 308 344 355 352 336 349 337 330 320 303 304 318 312 295 291 287 277
321 320 311 313 323 328 355 339 344 344 349 341 346 352 339 345 351 344 357 350 346 342 352 341 342 348 305 12 356 347 359 349 337 300 296 293 304 312 321 322 314 306 289